Regional Weather Roundup
Issued by NWS

Home | Current Version | Previous Version | Text Only | Print | Product List | Glossary On
Versions: 1 2 3 4 5 6 7 8 9 10 11 12 13 14 15 16 17 18 19 20 21 22 23 24 25 26 27 28 29 30 31 32 33 34 35 36 37 38 39 40 41 42 43 44 45 46 47 48 49 50
000
ASUS43 KMPX 201001
RWRMN
WEATHER ROUNDUP FOR MINNESOTA
NATIONAL WEATHER SERVICE TWIN CITIES/CHANHASSEN MN
500 AM CDT SUN MAY 20 2018


NOTE: "FAIR" INDICATES FEW OR NO CLOUDS BELOW 12,000 FEET WITH NO
SIGNIFICANT WEATHER AND/OR OBSTRUCTIONS TO VISIBILITY. N/A MEANS
CURRENT SKY AND/OR WEATHER CONDITIONS ARE NOT AVAILABLE.

MNZ060>063-068>070-201100-
   Twin Cities Metro

CITY           SKY/WX    TMP DP  RH WIND       PRES   REMARKS
TWIN CITIES    MOCLDY    47  38  71 NE10      30.19S
ST PAUL        FAIR      46  36  68 NE8       30.20S
CRYSTAL        FAIR      44  37  76 N12       30.19F
BLAINE         FAIR      43  39  87 N9        30.20F
LAKEVILLE      FAIR      45  37  76 NE17G23   30.16S
EDEN PRAIRIE   FAIR      47  36  65 NE16G25   30.17S
SOUTH ST PAUL  FAIR      46  36  68 NE10G16   30.19S
LAKE ELMO      FAIR      45  37  76 NE8       30.20F
$$
MNZ001>005-007-008-013>017-022>024-027-028-201100-
   Northwest Minnesota

CITY           SKY/WX    TMP DP  RH WIND       PRES   REMARKS
BEMIDJI        FAIR      32  31  96 CALM      30.24S
HALLOCK        FAIR      37  36  93 SE3       30.22S
ROSEAU         FAIR      45  36  70 CALM      30.22R
WARROAD        FAIR      41  36  81 SW5       30.22S
THIEF RVR FALL FAIR      39  34  82 S3        30.25R
CROOKSTON      FAIR      37  34  87 SE6       30.25R
FOSSTON        FAIR      34  28  80 CALM      30.25R
DETROIT LAKES  FAIR      43  36  75 CALM      30.25R
MOORHEAD       FAIR      37  30  75 CALM      30.25R
PARK RAPIDS    FAIR      34  31  88 CALM      30.23S
MAHNOMEN       FAIR      42  34  73 SE5       30.24S
$$
MNZ006-009>011-018-025>026-201100-
   North Central Minnesota

CITY           SKY/WX    TMP DP  RH WIND       PRES   REMARKS
BAUDETTE       FAIR      40  33  76 CALM      30.22R
FLAG ISLAND    FAIR      50  34  53 SW15      30.18F
INTL FALLS     FAIR      31  31 100 CALM      30.22R
WASKISH        FAIR      30  30 100 CALM      30.24R
BIG FORK       FAIR      30  28  93 CALM      30.23S
LONGVILLE      FAIR      32  32 100 CALM      30.24S
GRAND RAPIDS   FAIR      34  32  92 CALM      30.27R
CRANE LAKE     FAIR      27  27 100 CALM      30.25R
ORR            FAIR      34  30  86 CALM      30.21R
COOK           FAIR      28  28 100 CALM      30.23S
WALKER         FAIR      33  32  98 CALM      30.24S
$$
MNZ012-019>021-037-201100-
   Northeast Minnesota

CITY           SKY/WX    TMP DP  RH WIND       PRES   REMARKS
DULUTH         FAIR      33  29  85 CALM      30.24S
ELY            FAIR      30  30 100 CALM      30.24R
HIBBING        FAIR      26  25  96 CALM      30.25S
EVELETH        FAIR      28  28 100 CALM      30.26S FOG
DULUTH HARBOR  FAIR      39  37  93 NE5       30.26S
TWO HARBORS    FAIR      30  27  86 CALM      30.24S
SILVER BAY     FAIR      28  28 100 CALM      30.24S
GRAND MARAIS     N/A     32  29  88 CALM      30.25R
G MARAIS ARPRT FAIR      30  27  86 W3        30.23R
$$
MNZ029>031-032-039>041-046>048-054>057-064-201100-
   West Central Minnesota

CITY           SKY/WX    TMP DP  RH WIND       PRES   REMARKS
FERGUS FALLS   FAIR      43  36  75 E3        30.21R
WHEATON        CLOUDY    41  32  70 CALM      30.25S
MORRIS         CLEAR     43  36  75 NE5       30.22S
ALEXANDRIA     FAIR      44  37  76 E6        30.24R
ELBOW LAKE     FAIR      46  37  69 SE5       30.24R
WADENA         FAIR      34  30  86 CALM      30.23R
GLENWOOD       FAIR      39  37  93 NE7       30.23R
APPLETON       PTCLDY    43  36  75 NE5       30.22R
BENSON         PTCLDY    45  37  76 CALM      30.24R
ORTONVILLE     PTCLDY    46  37  71 E6        30.22S
MADISON        CLOUDY    45  39  81 N7        30.21S
WILLMAR        FAIR      46  37  71 NE8       30.23S
$$
MNZ033>034-036-042>043-049>051-058-059-201100-
   Central Minnesota

CITY           SKY/WX    TMP DP  RH WIND       PRES   REMARKS
ST CLOUD       FAIR      38  36  92 N3        30.23R
SAUK CENTRE    FAIR      42  38  84 NE5       30.24R
PAYNESVILLE    FAIR      42  39  91 NE5       30.23S
AITKIN         FAIR      27  27 100 CALM      30.23S
PINE RIVER     FAIR      34  30  86 CALM      30.27S
BRAINERD       FAIR      35  33  92 CALM      30.24S FOG
STAPLES        FAIR      34  34 100 CALM      30.24R
LONG PRAIRIE   FAIR      37  36  93 CALM      30.24S
LITTLE FALLS   FAIR      37  37 100 CALM      30.24S
LITCHFIELD     FAIR      46  41  81 NE6       30.21S
BUFFALO        FAIR      44  38  81 N8        30.22S
MAPLE LAKE     FAIR      42  39  89 N5        30.22F
HUTCHINSON     FAIR      47  40  75 NE13G18   30.19S
$$
MNZ037-044-045-052-053-201100-
   East Central Minnesota

CITY           SKY/WX    TMP DP  RH WIND       PRES   REMARKS
PRINCETON      FAIR      39  37  93 N3        30.23S
MORA           FAIR      36  34  93 N3        30.25R
CAMBRIDGE      FAIR      43  36  75 CALM      30.23S
RUSH CITY      FAIR      37  35  90 NE3       30.23S
MOOSE LAKE     FAIR      32  32 100 CALM      30.23R
HINCKLEY       FAIR      36  36 100 N5        30.24R
CLOQUET        FAIR      30  28  93 N5        30.24S FOG     WCI  25
MCGREGOR       FAIR      32  32 100 CALM      30.24S
$$
MNZ071>073-080-081-089-090-097-098-201100-
   Southwest Minnesota

CITY           SKY/WX    TMP DP  RH WIND       PRES   REMARKS
MONTEVIDEO     CLOUDY    43  39  87 E5        30.21S
GRANITE FALLS  CLOUDY    47  41  78 N7        30.22R
CANBY          CLOUDY    47  40  78 E3        30.22R
MARSHALL       CLOUDY    48  39  71 NE12      30.19R
REDWOOD FALLS  CLOUDY    48  38  68 NE7       30.17S
OLIVIA         CLOUDY    50  41  71 NE9       30.18S
PIPESTONE      LGT RAIN  50  37  62 NE12G18   30.15R
WINDOM         CLOUDY    48  30  49 NE13      30.14R
WORTHINGTON    CLOUDY    48  43  82 NE14      30.14R
JACKSON        CLOUDY    50  41  71 NE14      30.14R
TRACY          CLOUDY    51  39  65 NE16      30.17R
SLAYTON        RAIN      47  40  77 NE13G18   30.16R
$$
MNZ065>067-074>077-082>085-091>093-201100-
   South Central Minnesota

CITY           SKY/WX    TMP DP  RH WIND       PRES   REMARKS
MANKATO        CLOUDY    49  37  63 NE17      30.14S
NEW ULM        CLOUDY    48  36  61 NE12G17   30.16R
ST JAMES       CLOUDY    48  39  71 NE14      30.15S
FAIRMONT       CLOUDY    49  43  80 NE10      30.13R
GLENCOE        FAIR      46  40  80 NE5       30.18R
FARIBAULT      FAIR      46  37  71 CALM      30.14S
OWATONNA       CLOUDY    48  39  71 NE13      30.13S
WASECA         CLOUDY    48  37  66 NE12G21   30.14S
ALBERT LEA     CLOUDY    48  37  66 NE12      30.12R
$$
MNZ078>079-086>088-094>096-201100-
   Southeast Minnesota

CITY           SKY/WX    TMP DP  RH WIND       PRES   REMARKS
ROCHESTER      CLOUDY    47  42  83 NE14      30.13R
RED WING       CLOUDY    48  32  53 E7        30.15S
STANTON        FAIR      49  36  62 NE13      30.14R
DODGE CENTER   CLOUDY    46  37  71 NE13G18   30.13R
WINONA         CLOUDY    48  41  76 NE7       30.12S
AUSTIN         CLOUDY    48  41  76 NE10G16   30.11R
PRESTON        CLOUDY    47  40  76 NE10      30.12R
$$
ABBREVIATIONS USED IN REMARKS
   TC - TEMPERATURES IN CELSIUS
  WCI - WIND CHILL INDEX
   HX - HEAT INDEX
  VSB - VISIBILITY
$$



USA.gov is the U.S. government's official web portal to all federal, state and local government web resources and services.